Regional Weather Roundup
Issued by NWS Little Rock, AR

Home | Current Version | Previous Version | Graphics & Text | Print | Product List | Glossary On
Versions: 1 2 3 4 5 6 7 8 9 10 11 12 13 14 15 16 17 18 19 20 21 22 23 24 25 26 27 28 29 30 31 32 33 34 35 36 37 38 39 40 41 42 43 44 45 46 47 48 49 50
969
ASUS44 KLZK 231005
RWRLZK

WEATHER ROUNDUP FOR ARKANSAS
NATIONAL WEATHER SERVICE LITTLE ROCK AR
500 AM CDT SUN APR 23 2017

NOTE: "FAIR" INDICATES FEW OR NO CLOUDS BELOW 12,000 FEET WITH NO
SIGNIFICANT WEATHER AND/OR OBSTRUCTIONS TO VISIBILITY.

ARZ001-003-010-029-231100-
NORTHWEST ARKANSAS

CITY           SKY/WX    TMP DP  RH WIND       PRES   REMARKS
FAYETTEVILLE   CLEAR     43  42  97 N3        30.08S
FORT SMITH     CLEAR     47  43  86 SW3       30.08F
HARRISON       CLEAR     44  43  96 NW6       30.06S
BENTONVILLE    CLEAR     45  39  81 N3        30.10R
ROGERS         CLEAR     42  40  92 NW5       30.10R
SILOAM SPGS    CLEAR     43  37  81 N8        30.10R
HIGHFILL       CLEAR     44  40  85 N10       30.09R
$$

ARZ004-005-016-231100-
NORTH CENTRAL ARKANSAS

CITY           SKY/WX    TMP DP  RH WIND       PRES   REMARKS
BATESVILLE     CLOUDY    48  45  87 NW7       30.00S
FLIPPIN        CLEAR     48  39  71 N6        30.02S
MTN HOME       CLEAR     44  42  93 VRB3      30.03S
$$

ARZ040-041-231100-
WEST CENTRAL ARKANSAS

CITY           SKY/WX    TMP DP  RH WIND       PRES   REMARKS
MENA           PTCLDY    48  46  93 CALM      30.06S
MOUNT IDA      CLOUDY    50  45  83 VRB5      30.01S
$$

ARZ009-017-025-026-028-231100-
NORTHEAST ARKANSAS

CITY           SKY/WX    TMP DP  RH WIND       PRES   REMARKS
JONESBORO      CLOUDY    49  45  86 N7        29.95R
NEWPORT        MOCLDY    49  46  90 NW13      29.98R
WALNUT RIDGE   CLOUDY    48  43  81 N14       29.97S
BLYTHEVILLE    CLOUDY    50  48  93 N15       29.92S
$$

ARZ022-023-033-042-044-231100-
CENTRAL ARKANSAS

CITY           SKY/WX    TMP DP  RH WIND       PRES   REMARKS
LITTLE ROCK    CLOUDY    50  47  89 N12       30.00S
N LITTLE ROCK    N/A     49  46  88 N7        30.01S
JACKSONVILLE   CLOUDY    51  46  84 NW6       29.99S
CONWAY           N/A     52  46  82 NW7       30.01S
SEARCY         CLOUDY    49  47  93 NW7       30.00F
HOT SPRINGS    CLOUDY    51  47  86 NW7       30.02S
RUSSELLVILLE   CLOUDY    51  45  79 NW3       30.03S
$$

ARZ036-231100-
EAST ARKANSAS

CITY           SKY/WX    TMP DP  RH WIND       PRES   REMARKS
WEST MEMPHIS   LGT RAIN  50  50 100 N7        29.90F
$$

ARZ050-053-066-070-073-231100-
SOUTHWEST ARKANSAS

CITY           SKY/WX    TMP DP  RH WIND       PRES   REMARKS
ARKADELPHIA    CLOUDY    53  47  79 N6        30.03S
CAMDEN         CLOUDY    50  45  81 NW8       30.01F
TEXARKANA      PTCLDY    48  46  93 NW7       30.04S
EL DORADO      CLOUDY    51  48  89 N9        30.01R
DE QUEEN       PTCLDY    48  46  93 W3        30.05S
$$

ARZ056-057-069-231100-
SOUTHEAST ARKANSAS

CITY           SKY/WX    TMP DP  RH WIND       PRES   REMARKS
PINE BLUFF     CLOUDY    50  48  93 NW10G20   29.98S
STUTTGART      CLOUDY    52  39  62 N17       29.97S
MONTICELLO     CLOUDY    52  48  86 NW6       29.97S

$$






USA.gov is the U.S. government's official web portal to all federal, state and local government web resources and services.